Overview Statistics Trail Chart Weather Telemetry Raw packets
 

This is the latest recevied weather packets stored in our database for station/object 4S6DRJ-13. If no packets are shown the sender has not sent any weather packets the latest 10 day(s).

<< 289 290 291 292 293 294 295 >>
Time Temp. Humidity Pressure Rain* Wind** Luminosity Snow
1788044033 27.78° C 85% 1009.2 hPa 0 mm 0.89 m/s, 272° 0 W/m² -
1788043973 27.78° C 85% 1009.2 hPa 0 mm 1.34 m/s, 235° 0 W/m² -
1788043912 27.78° C 85% 1008.9 hPa 0 mm 0.45 m/s, 283° 0 W/m² -
1788043851 27.78° C 85% 1009.2 hPa 0 mm 1.34 m/s, 220° 0 W/m² -
1788043790 27.78° C 85% 1009.1 hPa 0 mm 1.79 m/s, 218° 0 W/m² -
1788043729 27.78° C 85% 1009.1 hPa 0 mm 0.45 m/s, 198° 0 W/m² -
1788043668 27.78° C 85% 1009.1 hPa 0 mm 0.45 m/s, 225° 0 W/m² -
1788043607 27.78° C 85% 1009 hPa 0 mm 1.34 m/s, 237° 0 W/m² -
1788043546 27.78° C 85% 1009.1 hPa 0 mm 0.89 m/s, 224° 0 W/m² -
1788043485 27.78° C 85% 1009.1 hPa 0 mm 1.34 m/s, 223° 0 W/m² -
1788043423 27.78° C 85% 1008.9 hPa 0 mm 0.45 m/s, 216° 0 W/m² -
1788043363 27.78° C 85% 1009.1 hPa 0 mm 0.89 m/s, 228° 0 W/m² -
1788043302 27.78° C 85% 1009.2 hPa 0 mm 1.79 m/s, 168° 0 W/m² -
1788043241 27.78° C 85% 1009.2 hPa 0 mm 1.34 m/s, 201° 0 W/m² -
1788043180 27.78° C 85% 1009.1 hPa 0 mm 0 m/s 0 W/m² -
1788043119 27.78° C 85% 1009.2 hPa 0 mm 1.79 m/s, 187° 0 W/m² -
1788043058 27.78° C 85% 1009.2 hPa 0 mm 1.34 m/s, 270° 0 W/m² -
1788042997 27.78° C 85% 1009.1 hPa 0 mm 0.89 m/s, 231° 0 W/m² -
1788042875 27.78° C 85% 1009.1 hPa 0 mm 0.89 m/s, 233° 0 W/m² -
1788042814 27.78° C 85% 1009.1 hPa 0 mm 0 m/s 0 W/m² -
1788042753 27.78° C 85% 1009.1 hPa 0 mm 0.45 m/s, 241° 0 W/m² -
1788042692 27.78° C 85% 1008.9 hPa 0 mm 1.34 m/s, 231° 0 W/m² -
1788042640 27.78° C 85% 1008.8 hPa 0 mm 0.89 m/s, 229° 0 W/m² -
1788042570 27.78° C 85% 1009 hPa 0 mm 0.89 m/s, 217° 0 W/m² -
1788042509 27.78° C 85% 1008.9 hPa 0 mm 0.89 m/s, 203° 0 W/m² -

* Rain latest hour (hover to see other rain measurements)
** Current wind speed in m/s (hover to see current wind gust speed)